User: anonymous   Login
Location: Unspecified
(0.0000°N, 0.0000°E)
Time: 09:00:57
(UTC+00:00)
Language:

SAR-Lupe-4 - Orbit

View from above orbital plane
View from above orbital plane
View from above satellite
View from above satellite

Ground track
Ground track

The orbit data is extracted from the following two-line orbital elements,

1 32750U 08014A   17228.84342659 0.00001000  00000-0  37462-4 0    01
2 32750  98.1313 284.0397 0002000 303.9876  56.0123 15.27305139    08
Epoch (UTC): 16 August 2017 20:14:32
Eccentricity: 0.0002000
inclination: 98.1313°
perigee height: 482 km
apogee height: 485 km
right ascension of ascending node: 284.0397°
argument of perigee: 303.9876°
revolutions per day: 15.27305139
mean anomaly at epoch: 56.0123°
orbit number at epoch: 0

The dashed part of the orbit path shows where the satellite is in the earth's shadow,  

DLR